This demonstration page uses our WeatherBlox Daily Observations layout. Learn more.

38.88101, -77.10428

Hourly Observations for December 30, 2018

Temp ( °F °C ) Dew Point ( °F °C ) Humidity (%) Winds ( mph kmh ) Pressure ( in mb ) Visibility ( mi km ) Precip ( " mm )
12:52 am 00:52 Cloudy 41 5 28 -2.2 60 60 Calm 30.24 1024 10 16.0934 0 0
1:52 am 01:52 Cloudy 41 5 29 -1.7 62 62 Calm 30.24 1024 10 16.0934 0 0
2:52 am 02:52 Cloudy 40 4.4 30 -1.1 68 68 ESE 5 7 30.21 1023 10 16.0934 0 0
3:52 am 03:52 Cloudy 41 5 31 -0.6 67 67 SE 7 11 30.18 1022 10 16.0934 0 0
4:52 am 04:52 Cloudy 40 4.4 29 -1.7 65 65 Calm 30.2 1023 10 16.0934 0 0
5:52 am 05:52 Cloudy 41 5 30 -1.1 65 65 SE 5 7 30.2 1023 10 16.0934 0 0
6:52 am 06:52 Cloudy 41 5 30 -1.1 65 65 Calm 30.26 1025 10 16.0934 0 0
7:52 am 07:52 Cloudy 41 5 31 -0.6 67 67 Calm 30.25 1025 10 16.0934 0 0
8:52 am 08:52 Mostly Cloudy 42 5.6 32 0 68 68 N 3 6 30.28 1025 10 16.0934 0 0
9:52 am 09:52 Mostly Cloudy 42 5.6 30 -1.1 62 62 Calm 30.27 1025 10 16.0934 0 0
10:52 am 10:52 Mostly Cloudy 44 6.7 31 -0.6 60 60 SSW 5 7 30.25 1024 10 16.0934 0 0
11:52 am 11:52 Mostly Cloudy 45 7.2 33 0.6 63 63 S 8 13 30.21 1023 10 16.0934 0 0
12:52 pm 12:52 Mostly Cloudy 46 7.8 33 0.6 61 61 S 9 15 30.19 1022 10 16.0934 0 0
1:52 pm 13:52 Mostly Cloudy 47 8.3 34 1.1 61 61 S 8 13 30.18 1022 10 16.0934 0 0
2:52 pm 14:52 Mostly Cloudy 47 8.3 34 1.1 61 61 S 8 13 30.19 1023 10 16.0934 0 0
3:52 pm 15:52 Mostly Cloudy 47 8.3 35 1.7 63 63 S 6 9 30.21 1023 10 16.0934 0 0
4:52 pm 16:52 Mostly Cloudy 45 7.2 34 1.1 66 66 S 6 9 30.21 1023 10 16.0934 0 0
5:52 pm 17:52 Mostly Cloudy 45 7.2 32 0 61 61 SW 5 7 30.23 1024 10 16.0934 0 0
6:52 pm 18:52 Mostly Cloudy 43 6.1 33 0.6 68 68 SSW 6 9 30.25 1025 10 16.0934 0 0
7:52 pm 19:52 Partly Cloudy 43 6.1 37 2.8 80 80 Calm 30.25 1025 10 16.0934 0 0
8:52 pm 20:52 Partly Cloudy 42 5.6 36 2.2 79 79 S 3 6 30.27 1025 10 16.0934 0 0
9:52 pm 21:52 Partly Cloudy 41 5 34 1.1 76 76 SSE 3 6 30.27 1025 10 16.0934 0 0
10:52 pm 22:52 Mostly Cloudy 40 4.4 35 1.7 83 83 Calm 30.26 1025 10 16.0934 0 0
11:52 pm 23:52 Mostly Cloudy 40 4.4 34 1.1 79 79 Calm 30.28 1025 10 16.0934 0 0

Powered by AerisWeather